Tracking 29892 objects as of 21-Nov-2024
HD Live streaming from Space Station
objects crossing your sky now

STARLINK-5523

Track STARLINK-5523 now!
10-day predictions
STARLINK-5523 is classified as:


NORAD ID: 56470
Int'l Code: 2023-064Y
Perigee: 577.2 km
Apogee: 581.2 km
Inclination: 70.0 °
Period: 96.1 minutes
Semi major axis: 6950 km
RCS: Unknown
Launch date: May 10, 2023
Source: United States (US)
Launch site: AIR FORCE WESTERN TEST RANGE (AFWTR)
Your satellite tracking list
Your tracking list is empty




NASA's NSSDC Master Catalog

Two Line Element Set (TLE):
1 56470U 23064Y   24325.21342230  .00000649  00000-0  62207-4 0  9990
2 56470  69.9999 240.9235 0002878 275.0134  85.0697 14.98335559 84668
Source of the keplerian elements: AFSPC